Salida, CO

3:57 AM MST on December 17, 2017 (GMT -0700)
Salida

Weather History for KANK - March, 2013

Change the Weather History Date:

Thursday, March 7, 2013

  Actual Average (KGUC) Record (KGUC)
Temperature  
Mean Temperature 48 °F -  
Max Temperature 60 °F 35 °F 48 °F (1999)
Min Temperature 36 °F 11 °F -14 °F (2008)
Degree Days  
Heating Degree Days 17    
Moisture  
Dew Point 8 °F    
Average Humidity 21    
Maximum Humidity 35    
Minimum Humidity 8    
Precipitation  
Precipitation 0.00 in - - ()
Sea Level Pressure  
Sea Level Pressure 30.08 in    
Wind  
Wind Speed 9 mph (SW)    
Max Wind Speed 17 mph    
Max Gust Speed 26 mph    
Visibility 10 miles    
Events      
Averages and records for this station are not official NWS values.
T = Trace of Precipitation, MM = Missing Value Source: NWS Daily Summary

Daily Weather History Graph

Daily Weather History Graph

Search for Another Location

Airport or City:

Trip Planner

Search our weather history database for the weather conditions in past years. The results will help you decide how hot, cold, wet, or windy it might be!

Date:

Astronomy

Mar. 07, 2013 Rise Set
Actual Time 6:27 AM MST 6:03 PM MST
Civil Twilight 6:00 AM MST 6:30 PM MST
Nautical Twilight 5:29 AM MST 7:00 PM MST
Astronomical Twilight 4:59 AM MST 7:31 PM MST
Moon 3:26 AM MST (3/7) 1:57 PM MST (3/7)
Length of Visible Light 12h 29m
Length of Day
11h 36m
Waning Crescent, 19% of the Moon is Illuminated
Mar 7
Waning Crescent
Mar 11
New
Mar 19
First Quarter
Mar 27
Full
Apr 2
Last Quarter

Hourly Weather History & Observations

Time (MST) Temp. Windchill Dew Point Humidity Pressure Visibility Wind Dir Wind Speed Gust Speed Precip Events Conditions
12:15 AM 46.4 °F 43.5 °F 7.7 °F 21% 30.07 in 10.0 mi SSW 5.8 mph - N/A   Clear
12:35 AM 46.0 °F 41.9 °F 8.6 °F 22% 30.07 in 10.0 mi SSW 8.1 mph - N/A   Clear
12:55 AM 45.9 °F 42.3 °F 9.1 °F 22% 30.07 in 10.0 mi SSW 6.9 mph - N/A   Clear
1:15 AM 45.7 °F 41.0 °F 8.6 °F 22% 30.07 in 10.0 mi SW 9.2 mph - N/A   Clear
1:35 AM 46.6 °F - 8.6 °F 21% 30.07 in 10.0 mi SSW 10.4 mph - N/A   Clear
1:55 AM 45.1 °F 39.5 °F 10.0 °F 24% 30.07 in 10.0 mi SW 11.5 mph 17.3 mph N/A   Clear
2:15 AM 45.1 °F 38.4 °F 10.2 °F 24% 30.06 in 10.0 mi SW 15.0 mph 19.6 mph N/A   Clear
2:35 AM 44.6 °F 38.4 °F 10.6 °F 25% 30.06 in 10.0 mi SW 12.7 mph 20.7 mph N/A   Clear
2:55 AM 45.5 °F 39.9 °F 10.0 °F 24% 30.05 in 10.0 mi SW 11.5 mph 20.7 mph N/A   Clear
3:15 AM 45.5 °F 40.3 °F 9.7 °F 23% 30.05 in 10.0 mi SSW 10.4 mph 18.4 mph N/A   Clear
3:35 AM 44.6 °F 39.7 °F 10.4 °F 25% 30.05 in 10.0 mi SSW 9.2 mph 17.3 mph N/A   Clear
3:55 AM 43.7 °F 39.7 °F 10.4 °F 26% 30.05 in 10.0 mi SSW 6.9 mph - N/A   Clear
4:15 AM 43.7 °F 40.3 °F 10.4 °F 26% 30.05 in 10.0 mi SW 5.8 mph - N/A   Clear
4:35 AM 43.0 °F 39.5 °F 10.4 °F 27% 30.06 in 10.0 mi SSW 5.8 mph - N/A   Clear
4:55 AM 41.9 °F 40.0 °F 10.9 °F 28% 30.07 in 10.0 mi WSW 3.5 mph - N/A   Clear
5:15 AM 41.5 °F 39.6 °F 10.6 °F 28% 30.07 in 10.0 mi WNW 3.5 mph - N/A   Clear
5:35 AM 41.0 °F 38.0 °F 10.8 °F 29% 30.07 in 10.0 mi West 4.6 mph - N/A   Clear
5:55 AM 40.6 °F 37.5 °F 10.9 °F 30% 30.08 in 10.0 mi NNW 4.6 mph - N/A   Clear
6:15 AM 39.6 °F - 11.1 °F 31% 30.09 in 10.0 mi Calm Calm - N/A   Clear
6:35 AM 38.3 °F 34.8 °F 10.9 °F 32% 30.09 in 10.0 mi NNW 4.6 mph - N/A   Clear
6:55 AM 39.4 °F 36.1 °F 11.1 °F 31% 30.09 in 10.0 mi NW 4.6 mph - N/A   Clear
7:15 AM 41.0 °F 39.0 °F 11.3 °F 30% 30.10 in 10.0 mi NW 3.5 mph - N/A   Clear
7:35 AM 42.6 °F 39.9 °F 11.3 °F 28% 30.10 in 10.0 mi SSW 4.6 mph - N/A   Clear
7:55 AM 43.9 °F 41.3 °F 11.3 °F 27% 30.11 in 10.0 mi South 4.6 mph - N/A   Clear
8:15 AM 46.2 °F 42.7 °F 11.3 °F 24% 30.10 in 10.0 mi NE 6.9 mph - N/A   Clear
8:35 AM 48.0 °F - 9.9 °F 21% 30.10 in 10.0 mi South 3.5 mph - N/A   Clear
8:55 AM 49.8 °F - 8.6 °F 19% 30.10 in 10.0 mi South 10.4 mph 21.9 mph N/A   Clear
9:15 AM 50.5 °F - 9.1 °F 19% 30.11 in 10.0 mi South 12.7 mph 20.7 mph N/A   Clear
9:35 AM 50.7 °F - 10.0 °F 20% 30.10 in 10.0 mi South 11.5 mph 21.9 mph N/A   Clear
9:55 AM 50.5 °F - 12.0 °F 21% 30.10 in 10.0 mi SSE 12.7 mph 21.9 mph N/A   Clear
10:15 AM 53.4 °F - 8.8 °F 17% 30.10 in 10.0 mi South 11.5 mph 18.4 mph N/A   Clear
10:35 AM 53.8 °F - 7.5 °F 16% 30.10 in 10.0 mi SSW 12.7 mph 19.6 mph N/A   Clear
10:55 AM 55.4 °F - 6.3 °F 14% 30.10 in 10.0 mi SSW 10.4 mph 17.3 mph N/A   Clear
11:15 AM 56.3 °F - 5.4 °F 13% 30.10 in 10.0 mi South 12.7 mph 19.6 mph N/A   Clear
11:35 AM 54.3 °F - 9.0 °F 16% 30.10 in 10.0 mi South 15.0 mph 23.0 mph N/A   Clear
11:55 AM 56.1 °F - 7.7 °F 14% 30.10 in 10.0 mi South 17.3 mph 24.2 mph N/A   Clear
12:15 PM 55.9 °F - 6.8 °F 14% 30.10 in 10.0 mi South 15.0 mph 26.5 mph N/A   Clear
12:35 PM 57.6 °F - 4.8 °F 12% 30.09 in 10.0 mi South 15.0 mph 26.5 mph N/A   Clear
12:55 PM 57.6 °F - 3.0 °F 11% 30.07 in 10.0 mi South 12.7 mph 23.0 mph N/A   Clear
1:15 PM 58.1 °F - 3.0 °F 11% 30.07 in 10.0 mi South 16.1 mph 25.3 mph N/A   Clear
1:35 PM 59.0 °F - 3.2 °F 11% 30.06 in 10.0 mi South 12.7 mph 23.0 mph N/A   Clear
1:55 PM 59.2 °F - 3.4 °F 11% 30.05 in 10.0 mi South 15.0 mph 24.2 mph N/A   Clear
2:15 PM 59.4 °F - 4.1 °F 11% 30.05 in 10.0 mi South 15.0 mph 23.0 mph N/A   Clear
2:35 PM 59.5 °F - 3.9 °F 11% 30.05 in 10.0 mi South 15.0 mph 21.9 mph N/A   Clear
2:55 PM 59.9 °F - 3.4 °F 10% 30.04 in 10.0 mi SE 12.7 mph 20.7 mph N/A   Clear
3:15 PM 60.3 °F - 2.5 °F 10% 30.03 in 10.0 mi South 10.4 mph 18.4 mph N/A   Clear
3:35 PM 60.3 °F - 1.4 °F 9% 30.03 in 10.0 mi South 6.9 mph 16.1 mph N/A   Clear
3:55 PM 60.1 °F - -0.4 °F 9% 30.02 in 10.0 mi SSE 15.0 mph 21.9 mph N/A   Clear
4:15 PM 59.5 °F - -0.0 °F 9% 30.02 in 10.0 mi South 15.0 mph 21.9 mph N/A   Clear
4:35 PM 59.4 °F - -1.7 °F 8% 30.02 in 10.0 mi SSW 9.2 mph 16.1 mph N/A   Clear
4:55 PM 58.1 °F - -1.8 °F 9% 30.02 in 10.0 mi South 13.8 mph 21.9 mph N/A   Clear
6:35 PM 52.7 °F - 1.6 °F 12% 30.05 in 10.0 mi South 10.4 mph - N/A   Clear
6:55 PM 50.5 °F - 3.4 °F 15% 30.07 in 10.0 mi WSW 9.2 mph - N/A   Clear
7:15 PM 46.6 °F - 5.2 °F 18% 30.07 in 10.0 mi SW 10.4 mph - N/A   Clear
7:35 PM 48.2 °F - 6.1 °F 18% 30.08 in 10.0 mi SW 8.1 mph - N/A   Clear
7:55 PM 47.1 °F - 7.7 °F 20% 30.09 in 10.0 mi WSW 9.2 mph - N/A   Clear
8:15 PM 43.7 °F 38.6 °F 8.2 °F 23% 30.09 in 10.0 mi West 9.2 mph - N/A   Clear
8:35 PM 43.7 °F 39.1 °F 7.5 °F 23% 30.09 in 10.0 mi WSW 8.1 mph - N/A   Clear
8:55 PM 43.7 °F 39.1 °F 7.5 °F 23% 30.09 in 10.0 mi West 8.1 mph - N/A   Clear
9:15 PM 43.7 °F 39.1 °F 7.7 °F 23% 30.10 in 10.0 mi West 8.1 mph - N/A   Clear
9:35 PM 41.9 °F 35.4 °F 7.0 °F 24% 30.10 in 10.0 mi WSW 11.5 mph - N/A   Clear
9:55 PM 39.4 °F 32.7 °F 7.3 °F 27% 30.10 in 10.0 mi West 10.4 mph - N/A   Clear
10:15 PM 37.8 °F 30.2 °F 7.7 °F 29% 30.10 in 10.0 mi West 11.5 mph - N/A   Clear
10:35 PM 37.6 °F 32.3 °F 8.6 °F 30% 30.10 in 10.0 mi West 6.9 mph - N/A   Clear
10:55 PM 36.5 °F 31.8 °F 9.5 °F 33% 30.09 in 10.0 mi West 5.8 mph - N/A   Clear
11:15 PM 36.1 °F 31.4 °F 10.8 °F 35% 30.09 in 10.0 mi West 5.8 mph - N/A   Clear
11:35 PM 36.0 °F 31.1 °F 10.6 °F 35% 30.09 in 10.0 mi WNW 5.8 mph - N/A   Clear
11:55 PM 36.3 °F 33.7 °F 9.1 °F 32% 30.09 in 10.0 mi West 3.5 mph - N/A   Clear